Powrót do katalogu

FENGYUN 1C DEB

AktywnySSO
NORAD 37436·DEBRIS·🇨🇳 China

Wystrzelony May 10, 1999 z Taiyuan Satellite Launch Center

Loading…

Następne Przeloty (najbliższe 24 godziny)

TLE

Starzejące sięSource: Space-Track

Epoka: Sep 8, 2026, 09:07 UTC

1 37436U 99025EHE 26251.38042964  .00000643  00000-0  40662-3 0  9994
2 37436  98.9077 307.0071 0059520 113.4938 247.2500 14.06754112677891

Śledź FENGYUN 1C DEB w czasie rzeczywistym z AllMySat

Download on the App Store